Flag for Poland Weather past 2 weeks in Słupsk, Poland

Now
45 °F

Passing clouds.


Feels Like: 42 °F
Forecast: 41 / 51 °F
Wind: 5 mph from North

Location: Leba

Current Time: Apr 19, 2015 at 11:42:47 AM

Latest Report: Apr 19, 2015 at 11:00 AM


Visibility: 13 mi

Pressure: 30.19 "Hg

Humidity: 77%

Dew point: 38 °F

Location of SłupskLocation

Historic Weather in Słupsk — Graph

°F

Słupsk temperature yesterday

Maximum temperature yesterday: 44 °F (at 6:00 PM)
Minimum temperature yesterday: 39 °F (at 3:00 AM)
Average temperature yesterday: 42 °F

Past Weeks' High & Low Weather Summary

 TemperatureHumidityPressure
High70 °F (Apr 11, 4:00 PM)100% (Apr 9, 12:00 AM)30.52 "Hg (Apr 9, 12:00 AM)
Low28 °F (Apr 9, 4:00 AM)30% (Apr 11, 4:00 PM)29.62 "Hg (Apr 15, 11:00 PM)
Average44 °F79%30.11 "Hg
* Reported Apr 4 10:00 AM — Apr 19 10:00 AM, Słupsk, Weather by CustomWeather, © 2015

Note: Actual official high and low records may vary slightly from our data, if they occured in-between our weather recording intervals... More about our weather records

Advertising

Słupsk weather history for previous 24 hours

 ConditionsComfort  
Time TempWeatherWind HumidityBarometerVisibility
10:00 AM
Sun, Apr 19
44 °FScattered clouds.5 mph80%30.18 "Hg0 mi
9:00 AM44 °FPartly sunny.5 mph78%30.17 "Hg12 mi
8:00 AMN/APassing clouds.18 mphN/AN/A3 mi
7:00 AM43 °FScattered clouds.5 mph81%30.14 "Hg12 mi
6:00 AM42 °FPartly sunny.3 mph87%30.11 "Hg12 mi
5:00 AM42 °FPassing clouds.5 mph93%30.11 "Hg12 mi
4:00 AM39 °FPassing clouds.2 mph93%30.09 "Hg12 mi
3:00 AM43 °FOvercast.2 mph86%30.08 "Hg12 mi
2:00 AM44 °FOvercast.7 mph79%30.08 "Hg12 mi
1:00 AM45 °FOvercast.7 mph77%30.09 "Hg12 mi
12:00 AM44 °FPassing clouds.7 mph82%30.10 "Hg12 mi
11:00 PM
Sat, Apr 18
44 °FPassing clouds.7 mph82%30.11 "Hg12 mi
10:00 PM43 °FPassing clouds.6 mph81%30.11 "Hg12 mi
9:00 PM43 °FPassing clouds.7 mph79%30.11 "Hg12 mi
8:00 PM43 °FPassing clouds.7 mph76%30.13 "Hg12 mi
7:00 PM43 °FPartly sunny.7 mph69%30.13 "Hg12 mi
6:00 PM44 °FPassing clouds.5 mph67%30.14 "Hg12 mi
5:00 PM44 °FPassing clouds.6 mph72%30.15 "Hg12 mi
4:00 PM44 °FPassing clouds.6 mph73%30.17 "Hg12 mi
3:00 PM44 °FPartly sunny.6 mph80%30.18 "Hg12 mi
2:00 PM43 °FPartly sunny.6 mph79%30.18 "Hg12 mi
1:00 PM43 °FOvercast.5 mph79%30.19 "Hg12 mi
11:00 AM42 °FOvercast.3 mph79%30.19 "Hg12 mi
Weather by CustomWeather, © 2015

See weather overviewHow to use our weather pages